Regional Weather Roundup
Issued by NWS

Home | Current Version | Previous Version | Graphics & Text | Print | Product List | Glossary On
Versions: 1 2 3 4 5 6 7 8 9 10 11 12 13 14 15 16 17 18 19 20 21 22 23 24 25 26 27 28 29 30 31 32 33 34 35 36 37 38 39 40 41 42 43 44 45 46 47 48 49 50
000
ASUS45 KCYS 290910
RWRWY

WYOMING REGIONAL WEATHER ROUNDUP
NATIONAL WEATHER SERVICE CHEYENNE WY
300 AM MDT THU SEP 29 2016

NOTE:  "FAIR" INDICATES FEW OR NO CLOUDS BELOW 12,000 FEET
WITH NO SIGNIFICANT WEATHER AND/OR OBSTRUCTIONS TO VISIBILITY.

WYZ001-291000-
YELLOWSTONE NATIONAL PARK

CITY           SKY/WX    TMP DP  RH WIND       PRES   REMARKS
LK YELLOWSTONE   N/A     34  33  96 NW3       30.40F
W YELLOWSTONE  NOT AVBL

$$
WYZ002>013-054>058-071-098>099-291000-
NORTHERN WYOMING

CITY           SKY/WX    TMP DP  RH WIND       PRES   REMARKS
JACKSON        MOCLDY    45  37  76 E7        30.32F
CODY           FAIR      57  39  51 S12       30.22F
GREYBULL       FAIR      55  42  61 SE8       30.18S
WORLAND        FAIR      48  42  80 NE3       30.18F
SHERIDAN       FAIR      50  39  66 CALM      30.17F
BUFFALO        FAIR      55  38  52 SE10      30.25F
GILLETTE       FAIR      56  43  61 S17       30.26F
HULETT         FAIR      54  43  66 S7        30.30F
NEWCASTLE      FAIR      57  37  47 SE13      30.33F

$$
WYZ014>020-022>026-101>103-291000-
CENTRAL WYOMING

CITY           SKY/WX    TMP DP  RH WIND       PRES   REMARKS
BIG PINEY      MOCLDY    45  35  68 NE5       30.37R
PINEDALE       CLOUDY    43  32  65 W5        30.37F
DUBOIS         FAIR      41  34  75 W13       30.38S
LANDER         FAIR      56  38  50 W9        30.28S
RIVERTON       FAIR      49  42  77 W9        30.28S
CASPER         FAIR      43  39  86 NW6       30.29S
DOUGLAS        FAIR      53  40  61 E17       30.30F

$$
WYZ021-027>030-104>119-291000-
SOUTHERN WYOMING

CITY           SKY/WX    TMP DP  RH WIND       PRES   REMARKS
EVANSTON       MOCLDY    55  39  54 S6        30.35S
FORT BRIDGER   CLOUDY    57  40  53 S3        30.38R
ROCK SPRINGS   CLOUDY    57  39  51 S5        30.36R
DIXON          FAIR      45  37  73 NE6       30.40R
RAWLINS        CLOUDY    48  34  58 CALM      30.37R
SARATOGA       FAIR      46  32  57 E6        30.38R
LARAMIE        FAIR      50  36  58 S14       30.41F
CHEYENNE       FAIR      47  35  63 SW7       30.41S
TORRINGTON     FAIR      49  40  71 E9        30.34F
PINE BLUFFS    FAIR      46  36  66 S9        30.39F

$$



USA.gov is the U.S. government's official web portal to all federal, state and local government web resources and services.